Preview of NWS' New Version of Forecast
This preview is not operational and should not be used for support decisions.

Regional Weather Roundup (RWR)

Issued by National Weather Service (NWS)

                            
000
ASUS46 KPQR 232210
RWROR 

OREGON REGIONAL WEATHER ROUNDUP
NATIONAL WEATHER SERVICE PORTLAND OR
300 PM PDT FRI AUG 23 2019

NOTE: "FAIR" INDICATES FEW OR NO CLOUDS BELOW 12,000 FEET WITH
NO SIGNIFICANT WEATHER AND/OR OBSTRUCTIONS TO VISIBILITY.

ORZ001>013-232300-
NORTHWEST OREGON

  
CITY           SKY/WX    TMP DP  RH WIND       PRES   REMARKS
ASTORIA        SUNNY     72  58  61 W13       29.93S                  
TILLAMOOK      MOSUNNY   72  55  56 N8        29.94S                  
FLORENCE       FAIR      68  54  60 NW12G20   29.91F                  
PORTLAND       PTSUNNY   79  52  38 CALM      29.88F                  
VANCOUVER WA   MOSUNNY   78  50  37 W5        29.88F                  
SCAPPOOSE      MOSUNNY   81  53  37 N12G17    29.87F                  
HILLSBORO      MOSUNNY   79  56  45 E5        29.88F                  
AURORA         MOSUNNY   80  52  37 VRB3      29.89F                  
MCMINNVILLE    MOSUNNY   81  52  36 CALM      29.87F                  
SALEM          MOSUNNY   79  51  37 CALM      29.88F                  
CORVALLIS      SUNNY     82  54  37 NE6       29.89F                  
EUGENE         MOSUNNY   82  50  32 N10       29.89F                  
CRESWELL       SUNNY     79  52  38 NW7       29.88F                  
$$

ORZ021-028-232300-
SOUTHWEST OREGON

  
CITY           SKY/WX    TMP DP  RH WIND       PRES   REMARKS
NORTH BEND     MOSUNNY   67  58  72 N20       29.92F                  
BROOKINGS      SUNNY     70  56  61 SE7       29.83S                  
ROSEBURG       SUNNY     82  54  37 VRB5      29.86F                  
SEXTON SUMMIT  MOSUNNY   77  55  46 VRB3      29.99F                  
GRANTS PASS    FAIR      88  55  33 VRB3      29.86F                  
MEDFORD        SUNNY     88  43  20 VRB6      29.82F                  
$$

ORZ014>016-041-232300-
COLUMBIA GORGE

  
CITY           SKY/WX    TMP DP  RH WIND       PRES   REMARKS
TROUTDALE      PTSUNNY   78  55  44 CALM      29.88F                  
HOOD RIVER     MOSUNNY   82  50  32 NE3       29.84F                  
THE DALLES     MOSUNNY   87  47  24 NW5       29.81F                  
$$

ORZ029>031-041-044-049-050-061>064-502-503-505>511-232300-
EASTERN OREGON

  
CITY           SKY/WX    TMP DP  RH WIND       PRES   REMARKS
MADRAS         SUNNY     82  28  14 CALM      29.92F                  
REDMOND        SUNNY     86  32  14 E7        29.93F                  
BEND           SUNNY     86  36  16 VRB7      29.94F                  
PRINEVILLE     SUNNY     79  34  19 N5        29.94F                  
KLAMATH FALLS  SUNNY     83  42  23 VRB3      29.97F                  
LAKEVIEW       SUNNY     84  39  20 SE7       30.01F                  
HERMISTON      MOSUNNY   84  50  30 VRB6      29.83F                  
PENDLETON      MOSUNNY   84  46  26 VRB7      29.86F                  
JOHN DAY       SUNNY     85  36  17 NW10      29.96F                  
MEACHAM        MOSUNNY   78  46  32 VRB5      29.97F                  
LA GRANDE      MOSUNNY   83  47  28 VRB5      29.91F                  
BAKER CITY     SUNNY     86  45  23 VRB3      29.93F                  
BURNS          SUNNY     82  32  16 MISG      30.00F                  
ROME             N/A     86  34  15 VRB3      29.95F                  
ONTARIO        SUNNY     86  39  19 CALM      29.90F                  
$$